Time,TemperatureF,DewpointF,PressureIn,WindDirection,WindDirectionDegrees,WindSpeedMPH,WindSpeedGustMPH,Humidity,HourlyPrecipIn,Conditions,Clouds,dailyrainin,SoftwareType,DateUTC
2013-02-09 00:01:00,39.0,30.0,-100.00,ESE,110,3.0,4.0,70,0.00,,,-99.99,,2013-02-09 07:01:00,
2013-02-09 00:11:00,39.0,31.0,-100.00,East,95,1.0,6.0,71,0.00,,,-99.99,,2013-02-09 07:11:00,
2013-02-09 00:21:00,39.0,31.0,-100.00,SE,130,2.0,4.0,71,0.00,,,-99.99,,2013-02-09 07:21:00,
2013-02-09 00:31:00,39.0,30.0,-100.00,SE,125,2.0,4.0,71,0.00,,,-99.99,,2013-02-09 07:31:00,
2013-02-09 00:42:00,39.0,30.0,-100.00,South,185,9.0,12.0,71,0.00,,,-99.99,,2013-02-09 07:42:00,
2013-02-09 00:51:00,39.0,30.0,-100.00,SSW,195,2.0,11.0,71,0.00,,,-99.99,,2013-02-09 07:51:00,
2013-02-09 01:01:00,38.0,30.0,-100.00,SE,140,2.0,4.0,70,0.00,,,-99.99,,2013-02-09 08:01:00,
2013-02-09 01:11:00,38.0,29.0,-100.00,East,90,1.0,4.0,70,0.00,,,-99.99,,2013-02-09 08:11:00,
2013-02-09 01:21:00,37.0,29.0,-100.00,SE,140,3.0,4.0,70,0.00,,,-99.99,,2013-02-09 08:21:00,
2013-02-09 01:31:00,37.0,28.0,-100.00,SSE,150,1.0,4.0,70,0.00,,,-99.99,,2013-02-09 08:31:00,
2013-02-09 01:41:00,37.0,28.0,-100.00,North,355,1.0,2.0,70,0.00,,,-99.99,,2013-02-09 08:41:00,
2013-02-09 01:52:00,37.0,28.0,-100.00,NE,35,1.0,4.0,71,0.00,,,-99.99,,2013-02-09 08:52:00,
2013-02-09 02:02:00,37.0,28.0,-100.00,NNW,335,3.0,4.0,71,0.00,,,-99.99,,2013-02-09 09:02:00,
2013-02-09 02:11:00,37.0,28.0,-100.00,NW,320,2.0,2.0,71,0.00,,,-99.99,,2013-02-09 09:11:00,
2013-02-09 02:21:00,36.0,27.0,-100.00,NNE,15,0.0,3.0,71,0.00,,,-99.99,,2013-02-09 09:21:00,
2013-02-09 02:31:00,35.0,27.0,-100.00,NNE,15,0.0,0.0,72,0.00,,,-99.99,,2013-02-09 09:31:00,
2013-02-09 02:41:00,35.0,27.0,-100.00,SSE,160,2.0,3.0,72,0.00,,,-99.99,,2013-02-09 09:41:00,
2013-02-09 02:51:00,35.0,28.0,-100.00,SSE,165,2.0,4.0,73,0.00,,,-99.99,,2013-02-09 09:51:00,
2013-02-09 03:01:00,36.0,29.0,-100.00,SSW,205,7.0,9.0,73,0.00,,,-99.99,,2013-02-09 10:01:00,
2013-02-09 03:11:00,36.0,29.0,-100.00,SSW,205,7.0,10.0,73,0.00,,,-99.99,,2013-02-09 10:11:00,
2013-02-09 03:21:00,36.0,29.0,-100.00,South,190,4.0,8.0,73,0.00,,,-99.99,,2013-02-09 10:21:00,
2013-02-09 03:31:00,36.0,28.0,-100.00,ESE,110,1.0,6.0,72,0.00,,,-99.99,,2013-02-09 10:31:00,
2013-02-09 03:41:00,36.0,28.0,-100.00,NNW,330,2.0,3.0,72,0.00,,,-99.99,,2013-02-09 10:41:00,
2013-02-09 03:51:00,36.0,29.0,-100.00,SW,225,3.0,6.0,73,0.00,,,-99.99,,2013-02-09 10:51:00,
2013-02-09 04:01:00,36.0,28.0,-100.00,ENE,70,2.0,4.0,72,0.00,,,-99.99,,2013-02-09 11:01:00,
2013-02-09 04:11:00,36.0,28.0,-100.00,SW,225,0.0,3.0,73,0.00,,,-99.99,,2013-02-09 11:11:00,
2013-02-09 04:21:00,35.0,28.0,-100.00,North,350,2.0,2.0,73,0.00,,,-99.99,,2013-02-09 11:21:00,
2013-02-09 04:31:00,35.0,28.0,-100.00,NNW,345,2.0,4.0,73,0.00,,,-99.99,,2013-02-09 11:31:00,
2013-02-09 04:41:00,35.0,28.0,-100.00,North,0,1.0,4.0,74,0.00,,,-99.99,,2013-02-09 11:41:00,
2013-02-09 04:52:00,35.0,28.0,-100.00,NW,320,3.0,6.0,74,0.00,,,-99.99,,2013-02-09 11:52:00,
2013-02-09 05:02:00,35.0,28.0,-100.00,WNW,285,0.0,0.0,74,0.00,,,-99.99,,2013-02-09 12:02:00,
2013-02-09 05:11:00,35.0,28.0,-100.00,West,275,1.0,6.0,75,0.00,,,-99.99,,2013-02-09 12:11:00,
2013-02-09 05:21:00,35.0,28.0,-100.00,West,275,0.0,5.0,75,0.00,,,-99.99,,2013-02-09 12:21:00,
2013-02-09 05:32:00,35.0,28.0,-100.00,NNE,25,0.0,1.0,75,0.00,,,-99.99,,2013-02-09 12:32:00,
2013-02-09 05:42:00,35.0,28.0,-100.00,NW,305,0.0,2.0,76,0.00,,,-99.99,,2013-02-09 12:42:00,
2013-02-09 05:52:00,35.0,28.0,-100.00,NNW,335,2.0,4.0,76,0.00,,,-99.99,,2013-02-09 12:52:00,
2013-02-09 06:02:00,35.0,28.0,-100.00,NW,320,2.0,4.0,76,0.00,,,-99.99,,2013-02-09 13:02:00,
2013-02-09 06:11:00,35.0,28.0,-100.00,WNW,300,0.0,3.0,76,0.00,,,-99.99,,2013-02-09 13:11:00,
2013-02-09 06:21:00,35.0,28.0,-100.00,North,0,2.0,4.0,76,0.00,,,-99.99,,2013-02-09 13:21:00,
2013-02-09 06:31:00,35.0,28.0,-100.00,West,275,1.0,3.0,76,0.00,,,-99.99,,2013-02-09 13:31:00,
2013-02-09 06:42:00,35.0,28.0,-100.00,NW,320,4.0,6.0,76,0.00,,,-99.99,,2013-02-09 13:42:00,
2013-02-09 06:51:00,35.0,28.0,-100.00,SSE,165,4.0,6.0,76,0.00,,,-99.99,,2013-02-09 13:51:00,
2013-02-09 07:01:00,35.0,28.0,-100.00,South,170,6.0,8.0,75,0.00,,,-99.99,,2013-02-09 14:01:00,
2013-02-09 07:11:00,35.0,28.0,-100.00,SE,140,4.0,9.0,75,0.00,,,-99.99,,2013-02-09 14:11:00,
2013-02-09 07:21:00,35.0,28.0,-100.00,SE,145,7.0,9.0,75,0.00,,,-99.99,,2013-02-09 14:21:00,
2013-02-09 07:31:00,35.0,28.0,-100.00,SSW,205,7.0,12.0,74,0.00,,,-99.99,,2013-02-09 14:31:00,
2013-02-09 07:41:00,34.0,28.0,-100.00,South,170,8.0,12.0,76,0.00,,,-99.99,,2013-02-09 14:41:00,
2013-02-09 07:52:00,34.0,28.0,-100.00,South,175,10.0,16.0,78,0.00,,,-99.99,,2013-02-09 14:52:00,
2013-02-09 08:01:00,34.0,28.0,-100.00,South,175,11.0,13.0,79,0.00,,,-99.99,,2013-02-09 15:01:00,
2013-02-09 08:11:00,34.0,28.0,-100.00,South,185,7.0,12.0,80,0.00,,,-99.99,,2013-02-09 15:11:00,
2013-02-09 08:21:00,34.0,29.0,-100.00,South,180,6.0,11.0,82,0.00,,,-99.99,,2013-02-09 15:21:00,
2013-02-09 08:31:00,34.0,29.0,-100.00,SSW,195,4.0,11.0,82,0.00,,,-99.99,,2013-02-09 15:31:00,
2013-02-09 08:41:00,34.0,29.0,-100.00,NW,310,2.0,7.0,83,0.00,,,-99.99,,2013-02-09 15:41:00,
2013-02-09 08:51:00,34.0,29.0,-100.00,SSW,195,3.0,5.0,84,0.00,,,-99.99,,2013-02-09 15:51:00,
2013-02-09 09:01:00,34.0,29.0,-100.00,SSW,205,6.0,7.0,84,0.00,,,-99.99,,2013-02-09 16:01:00,
2013-02-09 09:11:00,34.0,30.0,-100.00,South,185,4.0,9.0,85,0.00,,,-99.99,,2013-02-09 16:11:00,
2013-02-09 09:21:00,34.0,30.0,-100.00,SSW,210,4.0,6.0,85,0.00,,,-99.99,,2013-02-09 16:21:00,
2013-02-09 09:31:00,34.0,31.0,-100.00,SW,220,6.0,7.0,85,0.00,,,-99.99,,2013-02-09 16:31:00,
2013-02-09 09:41:00,34.0,31.0,-100.00,SSW,210,4.0,8.0,85,0.00,,,-99.99,,2013-02-09 16:41:00,
2013-02-09 09:51:00,35.0,31.0,-100.00,South,190,4.0,6.0,85,0.00,,,-99.99,,2013-02-09 16:51:00,
2013-02-09 10:01:00,35.0,31.0,-100.00,South,190,1.0,4.0,85,0.00,,,-99.99,,2013-02-09 17:01:00,
2013-02-09 10:11:00,36.0,32.0,-100.00,SE,140,1.0,3.0,85,0.00,,,-99.99,,2013-02-09 17:11:00,
2013-02-09 10:21:00,36.0,32.0,-100.00,South,170,3.0,5.0,85,0.00,,,-99.99,,2013-02-09 17:21:00,
2013-02-09 10:32:00,37.0,33.0,-100.00,SE,125,4.0,7.0,84,0.00,,,-99.99,,2013-02-09 17:32:00,
2013-02-09 10:41:00,38.0,33.0,-100.00,SSE,160,4.0,6.0,82,0.00,,,-99.99,,2013-02-09 17:41:00,
2013-02-09 10:52:00,37.0,32.0,-100.00,South,180,4.0,7.0,80,0.00,,,-99.99,,2013-02-09 17:52:00,
2013-02-09 11:01:00,37.0,31.0,-100.00,South,175,6.0,7.0,78,0.00,,,-99.99,,2013-02-09 18:01:00,
2013-02-09 11:11:00,38.0,31.0,-100.00,South,170,2.0,7.0,76,0.00,,,-99.99,,2013-02-09 18:11:00,
2013-02-09 11:23:00,38.0,31.0,-100.00,South,175,4.0,7.0,74,0.00,,,-99.99,,2013-02-09 18:23:00,
2013-02-09 11:31:00,39.0,31.0,-100.00,South,180,4.0,7.0,72,0.00,,,-99.99,,2013-02-09 18:31:00,
2013-02-09 11:41:00,40.0,31.0,-100.00,SSE,165,4.0,9.0,69,0.00,,,-99.99,,2013-02-09 18:41:00,
2013-02-09 11:51:00,40.0,30.0,-100.00,South,190,7.0,11.0,65,0.00,,,-99.99,,2013-02-09 18:51:00,
2013-02-09 12:01:00,40.0,29.0,-100.00,SSE,155,6.0,11.0,63,0.00,,,-99.99,,2013-02-09 19:01:00,
2013-02-09 12:11:00,41.0,29.0,-100.00,SE,140,6.0,10.0,60,0.00,,,-99.99,,2013-02-09 19:11:00,
2013-02-09 12:22:00,41.0,28.0,-100.00,South,170,7.0,11.0,58,0.00,,,-99.99,,2013-02-09 19:22:00,
2013-02-09 12:31:00,41.0,27.0,-100.00,SSW,195,9.0,12.0,56,0.00,,,-99.99,,2013-02-09 19:31:00,
2013-02-09 12:41:00,41.0,26.0,-100.00,SSE,165,7.0,12.0,55,0.00,,,-99.99,,2013-02-09 19:41:00,
2013-02-09 12:52:00,41.0,26.0,-100.00,South,185,7.0,16.0,53,0.00,,,-99.99,,2013-02-09 19:52:00,
2013-02-09 13:01:00,40.0,24.0,-100.00,South,185,4.0,10.0,52,0.00,,,-99.99,,2013-02-09 20:01:00,
2013-02-09 13:11:00,40.0,24.0,-100.00,South,190,6.0,11.0,51,0.00,,,-99.99,,2013-02-09 20:11:00,
2013-02-09 13:21:00,40.0,24.0,-100.00,SSW,200,1.0,8.0,51,0.00,,,-99.99,,2013-02-09 20:21:00,
2013-02-09 13:31:00,42.0,26.0,-100.00,SW,220,0.0,7.0,51,0.00,,,-99.99,,2013-02-09 20:31:00,
2013-02-09 13:41:00,46.0,28.0,-100.00,SSW,195,4.0,8.0,49,0.00,,,-99.99,,2013-02-09 20:41:00,
2013-02-09 13:52:00,46.0,26.0,-100.00,NNW,340,0.0,7.0,44,0.00,,,-99.99,,2013-02-09 20:52:00,
2013-02-09 14:01:00,43.0,23.0,-100.00,SSE,150,6.0,9.0,44,0.00,,,-99.99,,2013-02-09 21:01:00,
2013-02-09 14:11:00,42.0,22.0,-100.00,East,90,2.0,9.0,46,0.00,,,-99.99,,2013-02-09 21:11:00,
2013-02-09 14:21:00,41.0,22.0,-100.00,SE,145,6.0,8.0,47,0.00,,,-99.99,,2013-02-09 21:21:00,
2013-02-09 14:31:00,41.0,22.0,-100.00,NW,305,6.0,9.0,46,0.00,,,-99.99,,2013-02-09 21:31:00,
2013-02-09 14:41:00,41.0,21.0,-100.00,South,175,5.0,9.0,44,0.00,,,-99.99,,2013-02-09 21:41:00,
2013-02-09 14:52:00,41.0,20.0,-100.00,South,175,6.0,9.0,42,0.00,,,-99.99,,2013-02-09 21:52:00,
2013-02-09 15:01:00,41.0,21.0,-100.00,SE,125,4.0,8.0,43,0.00,,,-99.99,,2013-02-09 22:01:00,
2013-02-09 15:11:00,41.0,22.0,-100.00,South,185,6.0,15.0,45,0.00,,,-99.99,,2013-02-09 22:11:00,
2013-02-09 15:21:00,41.0,22.0,-100.00,SW,235,5.0,13.0,45,0.00,,,-99.99,,2013-02-09 22:21:00,
2013-02-09 15:31:00,41.0,21.0,-100.00,South,185,4.0,12.0,45,0.00,,,-99.99,,2013-02-09 22:31:00,
2013-02-09 15:41:00,41.0,21.0,-100.00,SW,220,2.0,12.0,45,0.00,,,-99.99,,2013-02-09 22:41:00,
2013-02-09 15:51:00,40.0,21.0,-100.00,South,180,7.0,11.0,44,0.00,,,-99.99,,2013-02-09 22:51:00,
2013-02-09 16:01:00,41.0,21.0,-100.00,SSW,210,0.0,9.0,44,0.00,,,-99.99,,2013-02-09 23:01:00,
2013-02-09 16:11:00,40.0,21.0,-100.00,SSW,195,3.0,11.0,44,0.00,,,-99.99,,2013-02-09 23:11:00,
2013-02-09 16:21:00,40.0,22.0,-100.00,North,0,4.0,11.0,49,0.00,,,-99.99,,2013-02-09 23:21:00,
2013-02-09 16:31:00,39.0,22.0,-100.00,NE,40,1.0,7.0,50,0.00,,,-99.99,,2013-02-09 23:31:00,
2013-02-09 16:41:00,38.0,23.0,-100.00,NNW,335,11.0,15.0,53,0.00,,,-99.99,,2013-02-09 23:41:00,
2013-02-09 16:52:00,37.0,24.0,-100.00,North,0,7.0,14.0,58,0.00,,,-99.99,,2013-02-09 23:52:00,
2013-02-09 17:02:00,35.0,24.0,-100.00,NNE,30,4.0,10.0,63,0.00,,,-99.99,,2013-02-10 00:02:00,
2013-02-09 17:11:00,35.0,25.0,-100.00,NE,35,2.0,7.0,68,0.10,,,-99.99,,2013-02-10 00:11:00,
2013-02-09 17:21:00,35.0,27.0,-100.00,West,260,3.0,6.0,72,0.00,,,-99.99,,2013-02-10 00:21:00,
2013-02-09 17:32:00,35.0,28.0,-100.00,West,280,2.0,4.0,74,0.00,,,-99.99,,2013-02-10 00:32:00,
2013-02-09 17:41:00,35.0,28.0,-100.00,NNW,330,1.0,3.0,75,0.00,,,-99.99,,2013-02-10 00:41:00,
2013-02-09 17:51:00,35.0,28.0,-100.00,NW,310,4.0,5.0,74,0.00,,,-99.99,,2013-02-10 00:51:00,
2013-02-09 18:01:00,35.0,27.0,-100.00,NW,320,4.0,6.0,73,0.00,,,-99.99,,2013-02-10 01:01:00,
2013-02-09 18:11:00,35.0,27.0,-100.00,North,350,3.0,6.0,71,0.00,,,-99.99,,2013-02-10 01:11:00,
2013-02-09 18:21:00,35.0,26.0,-100.00,North,350,4.0,6.0,69,0.00,,,-99.99,,2013-02-10 01:21:00,
2013-02-09 18:31:00,35.0,26.0,-100.00,NNW,345,5.0,6.0,69,0.00,,,-99.99,,2013-02-10 01:31:00,
2013-02-09 18:41:00,35.0,26.0,-100.00,NNE,15,4.0,7.0,69,0.00,,,-99.99,,2013-02-10 01:41:00,
2013-02-09 18:51:00,35.0,26.0,-100.00,South,170,1.0,9.0,69,0.00,,,-99.99,,2013-02-10 01:51:00,
2013-02-09 19:01:00,35.0,26.0,-100.00,SW,235,1.0,6.0,69,0.00,,,-99.99,,2013-02-10 02:01:00,
2013-02-09 19:11:00,35.0,26.0,-100.00,SE,135,2.0,3.0,70,0.00,,,-99.99,,2013-02-10 02:11:00,
2013-02-09 19:22:00,35.0,26.0,-100.00,North,355,3.0,4.0,70,0.00,,,-99.99,,2013-02-10 02:22:00,
2013-02-09 19:31:00,34.0,26.0,-100.00,North,355,1.0,3.0,71,0.00,,,-99.99,,2013-02-10 02:31:00,
2013-02-09 19:41:00,34.0,25.0,-100.00,NE,50,0.0,1.0,71,0.00,,,-99.99,,2013-02-10 02:41:00,
2013-02-09 19:52:00,33.0,25.0,-100.00,NW,310,0.0,1.0,71,0.00,,,-99.99,,2013-02-10 02:52:00,
2013-02-09 20:01:00,33.0,26.0,-100.00,SE,130,5.0,9.0,73,0.00,,,-99.99,,2013-02-10 03:01:00,
2013-02-09 20:11:00,33.0,26.0,-100.00,West,270,1.0,6.0,73,0.00,,,-99.99,,2013-02-10 03:11:00,
2013-02-09 20:21:00,33.0,26.0,-100.00,West,275,0.0,3.0,73,0.00,,,-99.99,,2013-02-10 03:21:00,
2013-02-09 20:32:00,35.0,26.0,-100.00,North,5,4.0,9.0,71,0.00,,,-99.99,,2013-02-10 03:32:00,
2013-02-09 20:41:00,34.0,26.0,-100.00,South,190,2.0,6.0,69,0.00,,,-99.99,,2013-02-10 03:41:00,
2013-02-09 20:51:00,35.0,25.0,-100.00,SW,215,4.0,14.0,67,0.00,,,-99.99,,2013-02-10 03:51:00,
2013-02-09 21:01:00,35.0,25.0,-100.00,NE,35,4.0,11.0,65,0.00,,,-99.99,,2013-02-10 04:01:00,
2013-02-09 21:11:00,35.0,24.0,-100.00,ESE,120,3.0,12.0,64,0.00,,,-99.99,,2013-02-10 04:11:00,
2013-02-09 21:21:00,35.0,24.0,-100.00,SW,230,2.0,5.0,64,0.00,,,-99.99,,2013-02-10 04:21:00,
2013-02-09 21:32:00,34.0,24.0,-100.00,South,175,4.0,6.0,65,0.00,,,-99.99,,2013-02-10 04:32:00,
2013-02-09 21:41:00,34.0,24.0,-100.00,South,185,3.0,7.0,65,0.00,,,-99.99,,2013-02-10 04:41:00,
2013-02-09 21:51:00,34.0,24.0,-100.00,WSW,240,2.0,6.0,65,0.00,,,-99.99,,2013-02-10 04:51:00,
2013-02-09 22:01:00,34.0,24.0,-100.00,SSW,195,5.0,7.0,65,0.00,,,-99.99,,2013-02-10 05:01:00,
2013-02-09 22:11:00,33.0,24.0,-100.00,SSW,195,3.0,7.0,66,0.00,,,-99.99,,2013-02-10 05:11:00,
2013-02-09 22:22:00,33.0,23.0,-100.00,South,185,2.0,6.0,66,0.00,,,-99.99,,2013-02-10 05:22:00,
2013-02-09 22:31:00,33.0,23.0,-100.00,SSW,200,2.0,6.0,66,0.00,,,-99.99,,2013-02-10 05:31:00,
2013-02-09 22:41:00,33.0,23.0,-100.00,SSW,195,4.0,7.0,67,0.00,,,-99.99,,2013-02-10 05:41:00,
2013-02-09 22:52:00,33.0,24.0,-100.00,SW,215,4.0,6.0,67,0.00,,,-99.99,,2013-02-10 05:52:00,
2013-02-09 23:01:00,33.0,23.0,-100.00,South,185,4.0,9.0,67,0.00,,,-99.99,,2013-02-10 06:01:00,
2013-02-09 23:11:00,33.0,23.0,-100.00,South,175,4.0,7.0,67,0.00,,,-99.99,,2013-02-10 06:11:00,
2013-02-09 23:21:00,33.0,23.0,-100.00,SSE,165,2.0,6.0,67,0.00,,,-99.99,,2013-02-10 06:21:00,
2013-02-09 23:32:00,33.0,24.0,-100.00,SW,220,6.0,9.0,68,0.00,,,-99.99,,2013-02-10 06:32:00,
2013-02-09 23:42:00,33.0,24.0,-100.00,SSW,200,6.0,9.0,68,0.00,,,-99.99,,2013-02-10 06:42:00,
2013-02-09 23:51:00,32.0,23.0,-100.00,SSW,200,5.0,9.0,68,0.00,,,-99.99,,2013-02-10 06:51:00,